Theta_e
305 306 306 306 306 308 309 309 309 310 310 311 311 311 311 312 314 319 321 319 318 319 317 317 319 321 321 322 322 324 331 331 327 328 328 333 338 339 341 343 347 347 347 349 352
306 306 307 308 308 309 309 309 310 310 310 311 311 311 312 312 322 322 319 315 319 318 319 320 323 322 322 323 324 327 332 331 328 326 326 327 332 339 341 343 346 348 347 350 350
308 308 308 309 309 309 309 309 309 310 310 311 311 312 312 314 325 321 318 319 318 317 318 319 322 323 322 324 325 328 331 328 325 324 325 326 330 336 340 340 341 346 349 352 350
308 308 309 309 309 309 309 309 309 310 310 311 312 313 313 322 322 320 318 318 317 318 318 321 323 323 324 325 325 327 328 325 324 323 323 326 331 335 337 334 337 341 346 352 352
307 307 308 308 308 308 309 309 310 310 311 312 313 313 318 322 321 320 318 316 317 317 320 322 323 324 324 324 325 326 326 324 324 324 325 328 330 332 335 334 339 340 347 352 351
308 308 308 308 309 309 311 312 313 313 313 313 314 313 319 322 319 322 320 318 318 319 321 321 322 323 323 323 325 324 324 324 324 326 331 331 330 335 332 336 338 342 347 351 350
309 309 309 310 311 312 313 314 314 314 314 314 314 314 319 320 319 319 321 320 319 319 321 320 321 322 322 323 322 322 324 324 324 324 325 328 328 334 330 332 337 339 344 349 350
314 313 312 313 313 314 314 314 315 315 315 314 314 319 323 320 320 320 322 321 319 319 319 319 320 322 322 322 322 324 324 326 323 325 323 326 326 330 329 328 338 339 340 345 348
309 313 314 314 314 314 314 314 314 315 315 315 319 319 323 320 322 319 321 321 320 318 318 316 320 322 322 322 322 323 324 324 323 326 327 324 325 330 331 331 331 338 342 344 348
309 310 313 314 314 314 313 318 318 318 317 318 319 323 323 323 322 322 319 320 320 321 322 322 324 324 323 324 323 322 322 323 324 326 328 327 329 332 333 334 335 339 345 348 350
310 309 312 314 314 315 318 322 326 326 324 325 324 324 323 323 322 321 319 320 321 324 325 325 326 326 325 324 324 324 324 324 325 326 328 330 331 332 335 336 338 338 343 349 348
310 310 312 314 315 320 323 326 325 324 327 325 324 323 323 322 323 323 320 323 325 326 326 327 326 324 323 323 324 325 326 327 326 325 327 330 330 332 336 338 337 333 338 343 341
310 310 311 314 317 321 324 324 322 322 329 326 325 324 324 323 323 323 322 323 325 325 325 326 326 324 325 325 326 327 327 327 327 326 327 328 327 332 333 337 338 337 336 338 340
310 310 310 315 321 323 325 322 323 322 332 328 325 325 324 323 323 321 321 323 325 325 325 326 326 325 325 327 327 328 326 326 327 327 326 327 326 331 332 336 339 340 339 338 337
310 310 310 314 324 325 322 324 322 326 332 329 326 324 323 323 323 323 322 324 325 326 327 327 326 326 327 327 327 328 326 327 327 326 326 327 328 332 330 331 340 341 339 337 334
310 310 311 317 321 321 322 323 326 334 334 328 323 323 323 323 323 323 324 325 325 326 326 327 326 327 327 326 326 327 328 326 325 327 328 330 327 327 330 333 340 337 335 331 328
310 314 313 316 323 320 323 326 329 336 329 327 326 324 324 323 323 324 326 327 327 327 329 328 328 326 328 329 328 328 326 322 322 324 325 329 328 334 332 335 337 335 328 323 321
312 317 319 320 321 324 326 326 328 331 330 327 326 325 324 327 326 326 327 328 329 328 327 329 330 329 328 328 328 326 325 327 326 325 326 326 330 336 337 338 331 327 322 320 317
310 320 323 320 323 323 326 324 328 330 327 328 327 328 329 329 328 328 329 329 329 330 332 331 331 327 327 326 326 325 329 327 329 328 330 327 329 331 336 337 332 326 322 319 316
314 322 321 320 322 327 325 321 330 326 326 327 330 329 330 330 330 331 331 329 329 327 328 330 330 327 326 326 327 327 327 329 329 332 329 326 326 333 332 331 335 330 323 320 318
317 325 321 321 323 326 325 325 324 324 325 328 329 329 329 329 329 330 331 329 327 328 328 328 328 326 325 327 327 328 328 327 328 330 330 328 326 327 329 328 331 329 324 320 319
318 323 321 320 327 325 324 325 318 324 325 327 327 328 330 329 329 329 330 330 327 328 327 331 327 328 326 324 326 326 327 327 328 326 325 326 328 325 325 326 328 325 320 318 320
320 324 322 322 326 324 324 322 321 324 326 328 327 328 329 330 330 329 330 326 326 328 329 330 329 329 327 329 327 327 325 326 328 331 330 329 327 326 323 324 323 322 319 319 318
322 323 323 324 323 327 324 322 322 323 325 326 328 326 329 330 330 331 330 326 326 327 322 327 329 328 328 327 327 326 324 323 327 332 329 327 329 329 324 322 321 319 320 318 316
321 324 323 324 324 325 325 324 322 324 325 326 328 328 329 330 329 330 329 328 327 327 330 333 330 327 325 325 326 326 325 323 326 327 330 328 328 327 324 323 321 319 318 317 318
322 323 322 323 324 325 323 325 324 324 326 327 329 328 328 331 330 329 328 328 328 327 327 331 328 327 328 325 326 325 324 325 325 325 326 325 326 323 322 321 321 321 320 319 316
318 319 322 317 324 324 325 325 324 324 325 325 326 327 328 327 326 326 325 325 326 326 326 328 327 328 329 326 325 326 326 325 326 326 326 328 325 322 322 322 323 320 317 316 314
Wind_Speed
2 1 0 1 1 0 1 2 3 5 6 8 10 14 17 21 16 1 3 4 4 2 1 3 5 3 5 4 3 3 6 7 6 2 7 5 6 5 6 8 9 9 2 6 22
2 2 1 0 1 1 2 3 4 5 7 9 12 15 18 21 4 3 2 5 4 2 2 2 3 6 5 4 4 7 5 4 5 5 6 3 8 8 8 13 11 11 5 13 24
2 1 0 1 1 2 3 4 5 6 8 10 12 15 19 13 7 6 4 4 4 0 2 2 1 6 7 5 4 3 0 5 2 6 7 8 7 6 12 10 15 16 13 18 24
1 1 1 2 3 3 4 5 6 7 8 10 13 16 17 3 0 4 3 5 3 2 3 1 5 7 6 7 3 7 1 3 8 6 5 6 1 8 13 13 3 13 15 18 21
2 2 3 3 4 4 5 6 7 8 8 10 12 14 6 6 7 4 4 4 1 2 4 4 3 4 5 3 5 9 3 5 6 3 3 2 8 10 10 13 3 7 14 19 19
2 3 3 3 4 5 6 7 8 8 9 10 11 11 5 3 3 3 2 2 2 3 4 3 5 4 2 2 7 4 5 3 4 4 1 5 4 3 1 9 9 9 14 17 18
4 3 3 4 5 6 7 7 8 8 8 9 8 6 5 6 2 3 3 3 2 3 4 3 4 7 3 4 2 4 8 9 6 5 4 6 10 6 10 13 13 14 14 14 16
8 6 5 5 6 7 8 9 9 9 9 7 5 3 2 2 3 7 5 4 3 2 3 3 4 5 5 1 5 8 6 8 11 8 3 5 2 8 10 11 12 13 12 12 14
13 9 7 7 8 9 10 11 11 9 5 4 2 5 6 1 2 2 4 3 2 2 1 2 4 3 5 8 8 7 10 3 5 7 6 4 10 12 12 10 10 12 10 9 9
19 11 7 6 8 9 10 1 3 3 1 2 4 5 3 4 5 2 3 4 4 3 5 6 5 6 4 6 3 2 6 4 5 7 5 3 5 8 10 10 8 7 5 6 6
22 15 7 5 6 7 2 2 5 4 7 5 5 5 1 8 0 3 2 4 3 4 2 3 3 7 8 6 5 3 2 5 5 5 7 5 4 6 8 9 9 7 4 3 7
23 17 8 4 3 2 5 4 5 5 4 3 5 6 7 4 2 3 2 3 1 6 5 7 10 6 3 3 2 2 5 7 3 2 7 2 5 2 6 9 10 5 3 8 11
24 18 8 3 1 1 3 5 6 3 5 3 1 2 1 4 2 6 3 0 2 3 5 10 8 3 3 3 6 4 9 8 10 11 11 8 15 9 5 7 10 11 9 7 11
25 18 7 2 3 1 1 8 7 6 5 5 5 4 5 3 2 3 1 4 2 5 1 6 4 2 3 5 7 2 7 8 13 15 12 5 11 11 6 8 10 11 10 9 9
25 16 5 2 3 2 5 10 1 3 2 3 5 3 2 3 3 4 1 3 4 5 8 6 4 2 3 5 5 7 8 11 14 16 10 9 7 8 4 3 10 11 11 11 10
25 11 4 1 1 2 9 3 4 6 4 4 3 5 7 4 3 4 1 2 2 2 3 6 2 5 5 1 3 6 13 19 12 6 9 7 4 4 7 7 9 9 12 12 12
22 6 2 1 2 8 8 5 5 4 3 3 1 3 4 5 4 2 1 2 4 4 4 2 3 3 6 11 4 13 15 11 7 8 7 4 7 9 8 7 8 10 10 9 9
11 6 5 6 6 5 6 4 5 2 3 2 1 4 4 1 2 1 3 4 5 5 6 6 3 4 6 7 9 13 9 7 12 10 12 8 5 6 8 12 13 11 10 9 9
4 2 3 11 3 5 6 6 2 1 3 3 3 6 5 4 2 4 2 2 5 7 5 6 1 4 7 5 7 10 5 7 9 14 9 2 3 10 7 8 10 9 9 9 9
4 1 8 12 4 6 4 3 2 3 6 3 4 3 4 3 5 3 3 2 4 6 4 4 8 4 5 5 6 7 5 5 4 7 9 8 12 10 7 5 5 8 7 9 9
2 3 10 6 3 4 3 4 2 3 5 3 2 2 1 2 1 1 3 6 4 3 3 4 3 6 8 5 7 1 4 6 4 6 9 10 8 10 11 11 3 6 8 9 8
5 2 13 4 4 1 0 2 2 4 4 2 3 2 2 1 1 1 2 5 4 2 4 4 4 7 7 1 2 4 6 8 6 10 11 10 9 9 11 10 7 9 8 7 7
4 3 7 6 3 3 3 2 2 4 4 4 1 2 0 3 2 2 4 4 4 2 2 2 1 8 2 7 7 3 8 6 7 7 10 9 5 9 10 9 8 8 6 5 10
4 1 3 4 2 3 1 1 2 5 4 2 3 2 4 4 1 5 4 3 3 4 3 2 4 9 10 12 6 10 12 8 7 8 10 8 12 14 8 5 6 5 7 9 6
4 3 3 2 5 3 1 1 1 1 4 4 3 3 1 4 3 3 2 5 4 4 1 3 9 10 12 9 9 12 10 10 11 6 6 11 9 8 6 5 7 7 4 5 6
4 3 1 2 2 2 1 2 2 3 6 4 7 6 3 7 5 3 1 3 3 1 4 2 11 10 13 14 6 11 5 7 3 4 7 5 5 5 3 2 2 5 6 9 7
3 0 4 1 1 4 3 3 4 0 4 6 3 4 9 7 6 6 4 2 4 6 8 6 9 9 14 7 8 13 3 2 1 2 7 8 8 4 6 7 8 11 8 8 11
Wind_Direction
1 10 340 244 220 208 307 328 335 331 324 329 333 331 330 329 331 97 140 96 165 200 164 172 182 217 189 166 231 254 237 149 130 293 88 135 214 186 206 242 206 183 279 101 158
34 56 77 186 242 304 317 326 326 320 319 324 329 330 331 332 294 136 23 189 155 91 245 277 151 174 159 157 194 251 251 109 41 344 320 186 233 170 202 217 207 202 164 152 161
50 58 265 269 286 309 316 316 312 312 314 322 328 332 332 328 254 64 351 203 199 100 314 349 199 214 162 194 158 169 96 57 31 331 295 284 209 196 216 219 224 208 178 166 171
306 293 287 281 300 310 306 303 304 307 312 320 330 333 331 277 38 37 53 131 168 247 297 248 179 184 165 179 185 236 248 9 347 319 287 240 232 214 226 244 6 211 176 181 183
310 291 284 296 303 301 299 297 299 301 308 319 327 334 333 220 79 29 109 125 156 289 351 19 83 187 174 171 185 247 37 335 25 16 211 239 242 242 243 251 60 210 174 192 191
316 291 293 302 303 300 298 298 299 302 305 312 326 334 290 188 115 68 157 207 254 297 2 351 23 357 115 226 252 2 309 47 38 86 134 254 248 231 305 318 226 229 195 200 197
5 339 325 311 302 298 294 294 295 297 302 312 319 331 270 50 168 269 275 268 280 305 328 9 330 283 342 186 339 296 273 153 54 6 77 298 220 214 342 310 263 231 213 207 206
10 351 330 314 301 296 294 292 291 290 295 299 307 285 335 126 283 273 247 244 239 270 281 317 259 290 291 6 215 243 257 267 86 2 77 269 99 65 350 316 267 252 227 208 210
12 354 328 310 302 299 298 296 287 274 266 274 273 273 109 264 139 82 211 249 231 169 179 176 235 295 211 243 232 206 260 283 129 29 325 295 333 4 353 323 284 256 233 223 201
15 1 337 314 308 312 316 90 102 136 185 236 255 228 160 20 346 298 220 243 259 248 200 223 224 227 180 261 22 12 246 179 311 30 344 341 6 357 4 360 354 329 278 199 155
11 3 347 322 324 340 38 233 217 177 214 313 337 313 50 345 122 173 191 201 232 228 166 192 226 33 41 30 33 57 1 321 62 32 302 350 338 13 6 11 4 6 162 143 132
7 2 351 334 349 50 38 27 21 344 284 219 270 273 278 296 219 136 194 245 260 92 185 217 69 61 90 115 111 339 310 29 162 37 288 213 262 154 48 41 37 19 72 129 117
3 1 350 340 157 63 26 29 328 259 257 129 240 265 71 214 40 83 249 310 15 125 27 49 65 104 184 135 296 70 1 357 336 319 262 266 267 177 115 68 60 62 72 89 124
359 356 350 340 175 214 114 338 322 198 235 110 152 130 175 242 131 14 329 321 147 44 15 50 74 205 216 72 325 348 358 310 312 315 306 341 295 158 118 106 68 61 64 82 107
355 352 349 250 343 278 346 334 151 232 185 109 115 91 184 278 109 105 25 248 29 60 287 70 41 14 49 38 326 22 325 312 304 301 308 222 264 123 100 123 71 58 53 62 76
352 353 357 20 248 360 336 312 238 234 107 134 138 173 182 178 116 127 160 54 358 312 29 87 88 24 20 299 359 307 300 308 276 261 265 74 325 354 35 24 104 82 65 72 75
352 358 31 50 337 319 318 249 233 281 169 103 104 232 219 140 144 333 137 68 318 280 137 197 128 123 352 313 246 330 331 314 315 297 314 61 296 51 63 31 45 107 86 77 77
1 89 22 23 324 327 278 232 246 90 67 95 315 171 200 201 124 135 192 184 63 304 297 332 202 19 10 357 329 312 324 311 315 322 320 291 281 77 75 76 81 91 95 87 80
22 348 36 340 338 310 263 228 55 77 359 332 193 210 150 145 229 170 73 74 42 12 332 313 360 99 31 1 334 349 302 344 287 273 259 351 115 160 122 110 106 101 98 99 108
355 259 27 341 325 273 256 37 116 15 338 260 257 273 201 119 197 213 152 69 100 32 346 59 298 88 40 271 121 354 4 294 285 305 316 317 315 50 35 358 136 134 120 125 117
344 219 7 350 300 252 273 73 111 44 347 294 283 203 134 149 34 121 85 109 40 66 21 339 290 325 285 28 347 284 16 340 290 279 311 308 339 13 2 351 359 107 120 113 101
324 213 358 345 212 312 186 27 322 337 348 294 281 308 313 70 19 159 136 49 18 336 345 53 311 299 337 36 306 342 353 335 323 312 310 298 290 26 19 26 70 103 109 99 65
360 343 351 328 244 179 136 131 45 11 24 344 253 340 333 153 198 181 114 64 31 15 16 55 283 304 226 167 194 324 338 308 300 280 282 299 323 78 43 52 79 107 111 85 28
312 279 58 57 60 322 216 118 177 48 70 12 360 222 179 155 33 164 136 67 59 70 29 309 281 282 294 328 334 300 319 328 289 285 312 329 343 25 40 72 102 104 41 19 348
357 62 4 34 63 50 244 331 232 44 3 15 116 45 259 177 152 122 123 144 129 144 203 290 290 301 288 295 290 299 315 315 299 326 290 351 344 21 26 57 64 37 10 323 304
342 329 167 79 318 219 191 66 36 62 354 55 83 60 73 88 28 112 25 14 347 144 300 255 282 287 281 275 279 290 322 287 285 324 287 302 359 30 49 121 4 331 324 346 347
20 335 288 106 190 242 59 58 41 309 68 51 29 103 87 53 12 18 0 324 320 302 301 288 282 272 278 303 297 274 131 311 276 356 336 342 19 346 353 334 341 354 10 353 360